• In Deutschland
  • Länderverzeichnis
  • Für 7 Tage
  • Wassertemperatur
  • Satellitenkarten
  • Wetterkarte
  • Widgets
  • user-avatar
    Anmelden

    Stündliche Wetter Angern

    Heute, 21 Oktober, Samstag

    Zeit Temperatur Niederschläge Wind Luftdruck Luftfeuchtigkeit
    00:00 +10°C° 0 mm 3 m/S 756 mmHg 88%
    01:00 +10°C° 0 mm 2 m/S 756 mmHg 90%
    02:00 +10°C° 0,1 mm 2 m/S 756 mmHg 89%
    03:00 +10°C° 0,1 mm 3 m/S 756 mmHg 88%
    04:00 +10°C° 0,1 mm 3 m/S 757 mmHg 87%
    05:00 +9°C° 0 mm 3 m/S 757 mmHg 88%
    06:00 +9°C° 0 mm 3 m/S 757 mmHg 88%
    07:00 +9°C° 0 mm 2 m/S 757 mmHg 89%
    08:00 +10°C° 0 mm 2 m/S 757 mmHg 84%
    09:00 +13°C° 0 mm 2 m/S 757 mmHg 78%
    10:00 +13°C° 0 mm 3 m/S 756 mmHg 73%
    11:00 +14°C° 0 mm 3 m/S 756 mmHg 70%
    12:00 +16°C° 0 mm 3 m/S 756 mmHg 67%
    13:00 +17°C° 0 mm 3 m/S 756 mmHg 64%
    14:00 +17°C° 0 mm 3 m/S 755 mmHg 67%
    15:00 +17°C° 0 mm 2 m/S 755 mmHg 70%
    16:00 +16°C° 0 mm 2 m/S 755 mmHg 74%
    17:00 +16°C° 0,2 mm 2 m/S 755 mmHg 78%
    18:00 +16°C° 0,2 mm 2 m/S 755 mmHg 82%
    19:00 +14°C° 0,2 mm 3 m/S 755 mmHg 86%
    20:00 +15°C° 0,6 mm 2 m/S 755 mmHg 88%
    21:00 +14°C° 0,6 mm 2 m/S 755 mmHg 91%
    22:00 +14°C° 0,6 mm 2 m/S 755 mmHg 94%
    23:00 +14°C° 0,2 mm 2 m/S 755 mmHg 93%

    Morgen, 22 Oktober, Sonntag

    Zeit Temperatur Niederschläge Wind Luftdruck Luftfeuchtigkeit
    00:00 +13°C° 0,2 mm 3 m/S 755 mmHg 92%
    01:00 +12°C° 0,2 mm 3 m/S 755 mmHg 91%
    02:00 +12°C° 0,1 mm 3 m/S 755 mmHg 91%
    03:00 +11°C° 0,1 mm 3 m/S 755 mmHg 91%
    04:00 +11°C° 0,1 mm 3 m/S 755 mmHg 91%
    05:00 +10°C° 0 mm 3 m/S 755 mmHg 90%
    06:00 +10°C° 0 mm 3 m/S 755 mmHg 89%
    07:00 +9°C° 0 mm 3 m/S 755 mmHg 88%
    08:00 +10°C° 0 mm 4 m/S 755 mmHg 83%
    09:00 +10°C° 0 mm 5 m/S 755 mmHg 78%
    10:00 +12°C° 0 mm 5 m/S 755 mmHg 73%
    11:00 +12°C° 0 mm 5 m/S 755 mmHg 70%
    12:00 +12°C° 0 mm 5 m/S 755 mmHg 68%
    13:00 +13°C° 0 mm 5 m/S 755 mmHg 65%
    14:00 +12°C° 0 mm 4 m/S 755 mmHg 67%
    15:00 +12°C° 0 mm 4 m/S 755 mmHg 68%
    16:00 +12°C° 0 mm 3 m/S 755 mmHg 69%
    17:00 +11°C° 0 mm 3 m/S 755 mmHg 73%
    18:00 +10°C° 0 mm 3 m/S 756 mmHg 76%
    19:00 +9°C° 0 mm 2 m/S 756 mmHg 79%
    20:00 +9°C° 0 mm 2 m/S 756 mmHg 81%
    21:00 +8°C° 0 mm 2 m/S 756 mmHg 83%
    22:00 +8°C° 0 mm 2 m/S 756 mmHg 86%
    23:00 +8°C° 0 mm 2 m/S 756 mmHg 87%

    übermorgen, 23 Oktober, Montag

    Zeit Temperatur Niederschläge Wind Luftdruck Luftfeuchtigkeit
    00:00 +7°C° 0 mm 2 m/S 756 mmHg 89%
    01:00 +7°C° 0 mm 2 m/S 756 mmHg 90%
    02:00 +8°C° 0,1 mm 2 m/S 756 mmHg 90%
    03:00 +8°C° 0,1 mm 2 m/S 756 mmHg 89%
    04:00 +8°C° 0,1 mm 2 m/S 756 mmHg 89%
    05:00 +8°C° 0 mm 2 m/S 757 mmHg 90%
    06:00 +8°C° 0 mm 2 m/S 757 mmHg 91%
    07:00 +7°C° 0 mm 2 m/S 757 mmHg 92%
    08:00 +8°C° 0,2 mm 3 m/S 757 mmHg 88%
    09:00 +9°C° 0,2 mm 3 m/S 757 mmHg 84%
    10:00 +10°C° 0,2 mm 3 m/S 757 mmHg 81%
    11:00 +10°C° 0,2 mm 3 m/S 758 mmHg 82%
    12:00 +10°C° 0,2 mm 2 m/S 758 mmHg 82%
    13:00 +10°C° 0,2 mm 2 m/S 758 mmHg 83%
    14:00 +10°C° 0,1 mm 2 m/S 758 mmHg 84%
    15:00 +11°C° 0,1 mm 1 m/S 759 mmHg 85%
    16:00 +11°C° 0,1 mm 1 m/S 759 mmHg 87%
    17:00 +11°C° 0,1 mm 1 m/S 759 mmHg 89%
    18:00 +10°C° 0,1 mm 1 m/S 760 mmHg 91%
    19:00 +10°C° 0,1 mm 1 m/S 760 mmHg 94%
    20:00 +9°C° 0,1 mm 1 m/S 760 mmHg 94%
    21:00 +9°C° 0,1 mm 1 m/S 761 mmHg 94%
    22:00 +9°C° 0,1 mm 1 m/S 761 mmHg 94%
    23:00 +9°C° 0 mm 1 m/S 762 mmHg 94%

    24 Oktober, Dienstag

    Zeit Temperatur Niederschläge Wind Luftdruck Luftfeuchtigkeit
    00:00 +8°C° 0 mm 1 m/S 762 mmHg 94%
    01:00 +8°C° 0 mm 1 m/S 762 mmHg 95%
    02:00 +8°C° 0 mm 1 m/S 763 mmHg 94%
    03:00 +7°C° 0 mm 1 m/S 763 mmHg 94%
    04:00 +7°C° 0 mm 1 m/S 763 mmHg 94%
    05:00 +7°C° 0 mm 1 m/S 764 mmHg 94%
    06:00 +7°C° 0 mm 1 m/S 764 mmHg 94%
    07:00 +7°C° 0 mm 1 m/S 765 mmHg 94%
    08:00 +8°C° 0 mm 1 m/S 765 mmHg 89%
    09:00 +9°C° 0 mm 1 m/S 765 mmHg 84%
    10:00 +11°C° 0 mm 1 m/S 766 mmHg 79%
    11:00 +12°C° 0 mm 1 m/S 766 mmHg 74%
    12:00 +13°C° 0 mm 1 m/S 766 mmHg 70%
    13:00 +14°C° 0 mm 1 m/S 766 mmHg 65%
    14:00 +14°C° 0 mm 1 m/S 766 mmHg 68%
    15:00 +13°C° 0 mm 1 m/S 766 mmHg 70%
    16:00 +13°C° 0 mm 1 m/S 767 mmHg 72%
    17:00 +12°C° 0 mm 1 m/S 767 mmHg 76%
    18:00 +11°C° 0 mm 1 m/S 767 mmHg 80%
    19:00 +9°C° 0 mm 2 m/S 767 mmHg 84%
    20:00 +9°C° 0 mm 2 m/S 767 mmHg 85%
    21:00 +8°C° 0 mm 2 m/S 767 mmHg 86%
    22:00 +8°C° 0 mm 2 m/S 767 mmHg 87%
    23:00 +8°C° 0 mm 2 m/S 768 mmHg 89%

    25 Oktober, Mittwoch

    Zeit Temperatur Niederschläge Wind Luftdruck Luftfeuchtigkeit
    00:00 +7°C° 0 mm 2 m/S 768 mmHg 90%
    01:00 +7°C° 0 mm 2 m/S 768 mmHg 91%
    02:00 +7°C° 0 mm 2 m/S 768 mmHg 92%
    03:00 +7°C° 0 mm 2 m/S 767 mmHg 92%
    04:00 +7°C° 0 mm 2 m/S 767 mmHg 92%
    05:00 +7°C° 0 mm 2 m/S 767 mmHg 93%
    06:00 +6°C° 0 mm 2 m/S 768 mmHg 93%
    07:00 +6°C° 0 mm 2 m/S 768 mmHg 93%
    08:00 +8°C° 0 mm 3 m/S 768 mmHg 88%
    09:00 +9°C° 0 mm 3 m/S 768 mmHg 82%
    10:00 +11°C° 0 mm 4 m/S 768 mmHg 76%
    11:00 +12°C° 0 mm 4 m/S 768 mmHg 73%
    12:00 +13°C° 0 mm 3 m/S 768 mmHg 69%
    13:00 +13°C° 0 mm 3 m/S 768 mmHg 66%
    14:00 +13°C° 0 mm 3 m/S 767 mmHg 68%
    15:00 +13°C° 0 mm 3 m/S 767 mmHg 69%
    16:00 +13°C° 0 mm 3 m/S 767 mmHg 71%
    17:00 +12°C° 0 mm 3 m/S 768 mmHg 73%
    18:00 +11°C° 0 mm 3 m/S 768 mmHg 74%
    19:00 +11°C° 0 mm 3 m/S 768 mmHg 76%
    20:00 +10°C° 0,1 mm 3 m/S 768 mmHg 77%
    21:00 +10°C° 0,1 mm 3 m/S 769 mmHg 78%
    22:00 +10°C° 0,1 mm 2 m/S 769 mmHg 78%
    23:00 +10°C° 0,1 mm 2 m/S 769 mmHg 79%

    26 Oktober, Donnerstag

    Zeit Temperatur Niederschläge Wind Luftdruck Luftfeuchtigkeit
    00:00 +10°C° 0,1 mm 2 m/S 769 mmHg 79%
    01:00 +10°C° 0,1 mm 2 m/S 769 mmHg 80%
    02:00 +10°C° 0 mm 2 m/S 769 mmHg 80%
    03:00 +10°C° 0 mm 2 m/S 769 mmHg 80%
    04:00 +10°C° 0 mm 2 m/S 768 mmHg 81%
    05:00 +10°C° 0 mm 2 m/S 769 mmHg 82%
    06:00 +9°C° 0 mm 2 m/S 769 mmHg 83%
    07:00 +10°C° 0 mm 1 m/S 769 mmHg 84%
    08:00 +11°C° 0 mm 1 m/S 769 mmHg 80%
    09:00 +12°C° 0 mm 1 m/S 769 mmHg 77%
    10:00 +14°C° 0 mm 1 m/S 769 mmHg 74%
    11:00 +15°C° 0 mm 1 m/S 769 mmHg 70%
    12:00 +16°C° 0 mm 1 m/S 769 mmHg 67%
    13:00 +18°C° 0 mm 1 m/S 769 mmHg 63%
    14:00 +18°C° 0 mm 1 m/S 769 mmHg 66%
    15:00 +18°C° 0 mm 1 m/S 769 mmHg 68%
    16:00 +16°C° 0 mm 1 m/S 769 mmHg 70%
    17:00 +15°C° 0 mm 1 m/S 769 mmHg 73%
    18:00 +14°C° 0 mm 1 m/S 769 mmHg 75%
    19:00 +13°C° 0 mm 1 m/S 769 mmHg 77%
    20:00 +13°C° 0 mm 1 m/S 769 mmHg 77%
    21:00 +12°C° 0 mm 1 m/S 769 mmHg 77%
    22:00 +12°C° 0 mm 1 m/S 769 mmHg 76%
    23:00 +12°C° 0 mm 1 m/S 769 mmHg 76%
    Mehr zeigen